Torna al catalogo

SL-14 DEB

AttivoPO
NORAD 25998·DEBRIS·🇷🇺 Russia

Lanciato Sep 28, 1991 da Plesetsk Cosmodrome

Loading…

Prossimi Passaggi (prossime 24 ore)

TLE

AggiornatoSource: Space-Track

Epoca: Sep 14, 2026, 02:17 UTC

1 25998U 91068H   26257.09549418  .00000019  00000-0  52349-4 0  9996
2 25998  82.6755 122.2786 0035716 257.5007 257.9998 12.53622017223357

Traccia SL-14 DEB in tempo reale con AllMySat

Download on the App Store